To NAV CANADA Home Page Login to a new session Search on AWWS site Disclaimer Vers la page française équivalente Tips FAQ What's new on the site To the Forecasts and Observations / NOTAM section To "File a Flight Plan" website Publications and other links Update of the User's profile FIC Telephone Numbers My Weather Data Folder Route Weather Data Regional Weather Data Local Weather Data To the Forecasts and Observations / NOTAM section
Request Generated 11/16/2018 at 01:07:54 UTC . Weather information available at that time is displayed.

METAR/TAF

KANGIQSUJUAQ/KANGIQSUJUAQ (WAKEHAM BAY)/QC    

LWIS CYKG 160100Z AUTO 31015KT M09/M12 A2978=
LWIS CYKG 160000Z AUTO 31014G23KT M09/M12 A2977=
LWIS CYKG 152300Z AUTO 30017KT M10/M12 A2976=

*** REMARK        : Forecast period has ended; this was the last TAF issued
*** REMARQUE : La période de prévision est échue; ceci était le dernier TAF qui a été émis
TAF AMD CYKG 152109Z 1521/1522 30018KT P6SM SCT020 BKN100 TEMPO
1521/1522 5SM -SN BR BKN020 OVC100
RMK NXT FCST WILL BE ISSUED AT 161445Z=
Your time UTC time
Weather data provided by Environment Canada and NAV CANADA